Powrót do katalogu

STARLINK-34359

AktywnyŁącznośćVLEO
NORAD 64280·PAYLOAD·🇺🇸 United States

Wystrzelony Jun 4, 2025 z Vandenberg Space Force Base

Loading…

Następne Przeloty (najbliższe 24 godziny)

TLE

ŚwieżeSource: CelesTrak SupGP

Epoka: Sep 14, 2026, 21:27 UTC

1 64280C 25120AA  26257.89423611 -.00005174  00000+0 -15294-3 0  2575
2 64280  53.1586 315.9016 0001122  86.9172 205.1701 15.34374834    13

Śledź STARLINK-34359 w czasie rzeczywistym z AllMySat

Download on the App Store